Wind_Speed
13 14 13 13 12 7 6 9 9 8 6 6 4 4 2 4 4 5 4 3 3 3 5 6 6 6 10 14 15 23 32 38 38 37 40 44 44 47 49 50 52 53 54 55 55 56 56 56 56 56 56 56 56 55 55 53 52 51 51 51 50 50 49
18 20 16 13 14 9 6 9 9 6 5 4 4 2 3 2 4 5 3 5 3 3 5 6 7 8 7 10 12 17 26 32 34 36 43 46 46 49 51 52 53 54 55 56 56 56 57 57 57 58 57 57 56 55 54 54 53 53 52 52 51 51 50
14 19 15 10 14 15 10 8 9 8 6 7 6 4 4 4 4 3 4 5 5 5 5 4 7 11 11 10 11 15 20 24 29 36 42 46 48 49 50 50 51 52 54 56 57 57 57 57 57 57 57 56 55 55 54 53 52 51 51 51 51 51 50
6 10 10 8 12 14 10 7 9 9 6 6 6 3 4 4 4 4 3 4 5 5 5 7 11 14 14 12 9 14 18 23 31 37 41 44 46 46 47 48 50 52 54 57 57 57 57 57 57 56 54 54 54 54 53 52 51 50 50 50 50 50 50
6 5 9 12 13 10 9 8 9 9 4 4 5 2 3 5 3 4 4 4 6 6 7 12 17 16 15 14 11 13 19 29 37 42 43 45 45 45 48 49 50 52 54 56 57 56 56 56 55 54 53 53 53 53 53 52 51 51 50 50 49 49 49
6 7 8 13 15 11 9 7 8 10 6 5 6 5 3 4 4 4 5 4 7 8 7 12 17 15 14 17 13 11 20 33 41 44 46 46 47 48 49 49 50 52 53 54 55 54 53 53 53 53 53 53 53 53 53 52 51 51 51 50 49 48 47
9 16 14 11 15 13 10 7 7 9 7 7 8 7 6 6 4 3 4 3 6 8 7 10 14 14 16 20 15 11 21 36 43 44 44 47 49 52 51 50 51 52 53 54 53 53 53 52 52 52 52 53 52 53 52 52 51 51 50 49 48 47 46
9 15 14 11 12 13 11 8 7 8 9 9 8 6 6 6 6 5 2 3 6 8 5 7 12 15 16 20 18 16 22 34 42 42 42 46 49 51 51 51 51 51 51 52 52 53 52 51 51 52 52 53 52 52 52 51 51 51 50 49 48 47 46
5 7 6 7 8 10 9 8 10 11 13 11 6 4 5 5 7 8 5 4 7 7 5 4 9 15 14 14 18 23 26 31 37 38 42 47 49 49 49 49 48 48 48 49 51 52 52 52 51 53 53 53 51 51 50 50 50 50 49 49 48 47 46
4 5 4 2 2 4 6 11 16 14 15 14 7 5 5 6 6 7 6 6 8 8 8 8 4 12 14 10 14 22 29 35 37 38 41 46 47 47 48 47 45 46 47 49 51 52 53 52 52 52 53 52 51 50 49 49 49 49 49 48 48 47 46
8 7 10 10 8 8 9 13 18 15 13 14 10 5 5 6 6 5 7 10 9 8 8 9 4 5 10 9 10 14 23 33 38 41 44 45 45 46 47 47 46 47 47 49 51 52 53 53 52 52 52 52 51 50 49 49 49 49 49 48 48 47 47
14 16 20 21 14 13 16 14 18 18 14 14 12 8 7 7 6 5 9 11 9 7 8 8 3 4 8 9 8 12 23 33 37 41 45 45 43 44 45 46 47 48 48 49 50 51 51 51 50 50 50 50 50 50 49 49 49 49 49 48 48 48 47
20 20 20 20 16 14 16 16 19 20 16 16 14 9 8 9 8 8 10 11 10 8 8 8 6 4 5 8 11 16 26 35 38 40 43 43 42 43 44 46 48 50 51 50 50 49 49 49 48 47 48 48 48 48 48 48 48 48 48 48 48 48 47
21 19 16 14 12 11 11 12 19 21 16 17 14 9 9 9 8 9 10 11 10 8 8 7 4 1 3 6 13 17 23 32 36 39 41 41 41 42 44 47 50 52 51 50 49 49 48 48 48 47 47 47 48 48 48 48 47 47 47 47 47 48 47
14 14 11 11 10 9 8 5 14 22 18 15 13 10 8 6 7 7 7 9 7 6 2 2 5 9 9 7 9 14 21 29 34 36 37 39 41 41 44 47 48 48 48 47 47 48 48 49 48 48 48 47 48 48 48 48 46 45 45 46 46 47 47
8 10 13 17 15 9 6 12 4 12 17 13 10 8 5 2 5 5 6 6 6 5 2 6 8 10 11 7 6 10 17 25 31 33 34 38 41 43 44 44 43 43 45 45 46 47 49 49 48 48 48 48 48 48 48 47 45 43 42 42 44 45 45
7 10 16 17 13 5 5 9 13 10 3 6 5 4 7 7 1 3 4 6 6 5 7 10 10 10 10 8 7 10 15 21 26 31 35 37 39 41 43 42 42 44 44 45 47 47 47 47 47 46 46 46 46 45 45 45 44 43 42 41 42 43 43
7 13 17 12 5 4 1 1 11 16 9 15 15 9 12 13 10 5 2 3 2 3 9 14 12 11 13 15 18 18 20 22 22 23 27 29 31 33 36 38 40 42 42 42 44 44 43 43 43 43 43 42 40 39 40 41 42 43 43 42 43 43 43
6 9 9 4 1 1 2 1 10 15 11 13 17 17 18 18 16 13 8 6 5 3 10 18 19 20 26 32 34 29 26 30 30 27 25 25 26 26 28 31 32 34 35 36 37 38 39 39 39 40 40 39 37 36 36 38 40 41 42 43 44 44 43
3 4 4 0 5 4 5 6 12 17 15 12 14 18 17 18 17 14 11 8 6 5 11 18 24 32 38 38 36 32 31 33 36 36 33 30 28 26 23 24 23 23 24 26 28 31 33 33 34 35 36 36 35 34 34 36 39 40 42 43 44 44 43
1 3 4 3 4 6 7 9 13 12 10 11 8 8 10 15 16 14 11 9 8 6 6 11 24 36 36 26 23 27 30 31 35 38 37 35 34 32 28 25 23 20 20 19 19 22 24 25 26 28 31 33 34 33 32 34 37 39 41 42 43 43 43
4 4 3 3 3 2 5 11 17 13 8 10 7 2 8 13 17 16 13 11 10 10 9 6 12 28 25 10 10 20 26 29 34 38 37 35 35 33 31 30 28 26 24 22 20 19 20 21 20 21 24 27 30 31 31 32 35 37 40 42 42 42 43
4 4 2 3 1 1 7 16 19 21 20 13 6 3 8 11 17 19 16 12 11 13 13 12 7 16 15 5 6 16 24 29 33 35 35 34 32 31 29 27 26 25 23 21 20 20 20 19 17 17 19 22 25 26 27 28 32 35 38 39 40 40 40
5 4 2 1 1 1 11 17 19 27 29 13 2 6 5 8 16 19 16 14 15 17 17 15 11 11 9 6 7 16 25 31 32 32 32 30 29 28 25 23 21 20 19 18 17 16 15 14 14 15 16 18 20 22 23 25 29 31 34 35 35 36 37
5 4 2 1 0 3 12 19 25 30 22 5 7 6 2 9 15 17 17 16 19 22 23 19 14 13 15 15 16 21 27 31 31 30 29 27 26 25 22 19 17 16 14 13 11 11 9 8 8 11 13 14 15 17 19 21 23 26 29 31 32 33 34
3 3 2 1 1 4 16 25 28 23 9 4 5 5 5 12 14 14 18 19 21 24 26 23 21 21 23 23 23 24 26 28 29 27 25 25 23 21 19 16 15 14 11 8 6 5 4 2 3 6 9 11 11 12 14 16 18 20 23 27 30 33 34
2 1 3 3 0 8 20 23 18 14 9 5 5 7 11 17 18 17 21 24 24 24 24 25 26 26 26 26 25 25 24 24 25 24 23 22 21 20 18 16 13 11 8 5 3 4 3 2 1 4 7 8 9 11 12 14 16 17 19 22 25 29 32
3 2 4 4 3 4 15 15 8 7 9 12 14 14 16 20 22 21 23 25 28 26 23 24 26 26 27 26 24 24 23 21 21 21 21 20 19 19 18 16 12 9 7 5 5 4 4 4 3 2 5 7 9 11 13 14 16 17 18 19 20 23 27
1 1 2 4 2 2 11 15 13 14 17 19 21 21 20 21 23 24 26 26 28 29 26 25 26 25 25 24 23 24 25 22 19 18 18 19 18 18 17 15 11 8 7 5 5 5 5 4 4 3 3 5 8 10 12 14 16 17 18 19 19 19 21
2 1 6 12 9 8 15 17 17 20 20 19 21 23 22 21 21 24 26 27 28 29 27 26 26 25 25 25 24 24 26 26 22 18 16 17 17 17 17 15 12 9 7 5 5 6 6 5 5 4 5 6 6 8 11 13 14 16 17 18 19 19 19
4 1 7 14 11 10 15 18 19 22 21 19 20 21 19 19 20 21 23 24 26 27 27 26 26 24 24 25 24 23 24 26 25 21 17 16 16 17 16 14 11 9 8 8 8 9 8 8 6 7 8 8 8 8 10 12 13 14 15 16 18 18 18
5 0 7 18 15 4 8 14 17 19 20 21 21 20 17 17 19 21 22 22 24 24 25 25 24 24 24 24 22 21 21 22 23 22 18 16 15 15 15 13 12 10 10 10 10 10 10 9 9 8 9 10 11 11 11 11 13 13 13 14 16 17 17
5 0 10 22 19 8 7 13 14 15 19 21 21 19 18 17 18 19 20 20 21 21 21 21 22 23 24 23 20 18 18 18 19 19 17 15 13 12 12 12 12 11 10 9 9 9 9 10 11 11 9 11 12 13 12 12 12 13 14 13 12 13 15
3 3 8 13 9 6 15 24 21 17 19 20 19 18 19 19 18 17 17 18 18 18 18 18 19 20 22 21 18 15 15 15 15 15 15 13 11 11 10 10 10 9 7 7 8 9 9 11 13 13 11 12 13 12 12 12 11 12 13 13 12 11 12
8 10 11 12 10 10 20 28 28 24 20 18 18 18 17 16 15 14 15 16 17 17 16 16 17 17 18 19 16 14 13 12 12 12 12 11 10 11 11 10 9 7 6 6 7 8 10 11 13 13 13 13 14 12 9 9 10 10 12 13 13 12 11
13 16 18 19 20 22 27 32 33 29 22 18 19 17 13 12 12 13 14 14 14 16 16 15 16 16 16 17 17 15 13 12 10 10 10 8 8 10 10 9 7 6 6 7 7 9 10 11 13 13 12 13 14 10 7 7 8 8 11 13 14 13 13
20 23 25 27 28 31 33 34 35 33 27 21 17 12 10 9 10 12 15 16 15 16 16 16 15 15 15 16 17 16 14 12 10 8 7 6 8 8 8 7 6 6 6 6 7 8 9 10 12 11 11 12 11 7 5 6 6 8 9 12 13 13 15
Wind_Direction
212 210 203 189 187 180 187 196 200 199 168 156 201 249 245 137 175 241 224 219 264 271 272 258 224 213 219 216 185 173 188 191 187 188 191 194 195 194 195 196 197 198 197 197 198 199 200 200 200 202 203 205 207 208 210 212 214 215 216 217 219 220 221
215 217 214 205 197 172 163 200 194 146 139 186 184 212 273 176 193 263 259 224 240 223 247 261 230 225 235 216 188 179 186 186 185 189 192 194 194 194 196 197 198 198 197 197 199 200 201 201 202 203 205 207 208 210 211 212 212 214 216 218 219 220 220
210 209 212 222 210 194 186 188 170 148 173 202 181 181 212 186 191 265 286 241 216 200 225 244 219 223 235 222 190 181 184 182 184 190 193 195 194 195 196 197 197 198 198 198 199 200 201 202 203 205 206 207 208 210 212 213 214 216 217 218 218 219 220
237 203 197 217 216 204 191 165 166 177 184 183 178 181 176 161 189 222 255 252 236 226 209 207 221 224 224 222 192 176 182 183 185 189 193 194 193 194 195 196 197 198 198 200 200 200 201 202 204 205 205 206 207 209 211 213 216 216 217 218 219 219 221
311 224 197 207 212 204 187 172 181 188 166 147 174 197 161 147 162 189 199 236 251 246 211 211 226 224 219 223 201 176 182 183 186 191 192 191 191 192 194 195 197 198 199 200 200 201 202 203 203 203 204 206 207 209 211 213 215 215 216 218 219 221 222
307 257 237 211 206 208 194 180 190 189 165 145 179 220 216 167 160 168 177 223 254 246 215 214 225 219 217 224 207 176 180 182 188 193 191 189 189 191 194 195 196 197 198 199 200 201 201 201 201 202 203 205 207 209 211 212 214 215 217 218 220 222 223
269 267 275 241 210 208 201 189 190 189 176 163 180 208 205 186 203 193 165 213 263 254 215 207 224 220 213 219 209 172 176 182 189 194 190 187 189 191 194 195 196 197 198 198 199 199 200 201 201 202 203 205 207 209 211 212 213 216 218 220 221 222 223
271 267 277 268 229 207 202 200 184 185 194 185 177 185 176 178 206 206 193 248 268 271 235 200 221 223 215 213 199 172 173 184 189 190 186 185 189 191 193 194 195 196 197 197 198 199 200 201 201 202 204 205 207 209 210 212 214 216 218 219 221 222 223
278 264 269 279 247 210 205 201 190 193 197 186 157 140 159 189 206 188 177 232 253 270 286 270 228 216 212 207 186 170 171 181 186 184 183 185 188 190 192 193 194 194 194 196 197 199 200 200 202 203 205 206 207 209 210 212 214 216 218 218 220 222 224
247 231 221 254 279 248 229 203 197 198 189 183 166 129 160 202 210 185 177 223 258 284 306 314 257 191 190 187 167 164 171 177 179 179 182 187 187 188 190 191 191 192 194 196 198 200 200 201 203 204 205 206 207 209 211 213 215 216 217 218 219 221 224
260 269 274 284 310 306 269 217 199 193 184 184 175 144 168 188 181 187 209 224 251 283 295 308 324 153 165 162 142 150 166 174 176 177 182 187 188 187 188 189 190 192 194 197 199 200 201 202 203 205 206 206 207 209 211 214 216 216 217 219 220 222 224
271 277 279 282 289 285 274 248 207 189 182 183 183 183 186 163 149 200 235 228 229 257 271 275 281 128 138 150 149 151 164 172 176 177 180 185 187 186 187 188 189 192 195 198 199 200 200 201 203 205 206 207 208 209 211 213 215 216 217 219 220 222 224
291 282 275 272 266 260 268 255 211 190 185 186 189 199 185 156 157 204 228 221 210 226 251 249 233 188 150 161 165 161 164 170 175 177 179 184 184 184 186 187 189 193 197 198 199 199 199 200 202 204 205 206 208 209 210 212 214 216 217 218 219 221 222
295 286 279 274 265 264 284 255 200 185 192 193 185 190 189 174 181 198 205 207 209 224 233 225 212 122 80 141 152 153 160 167 172 176 178 182 183 184 186 188 191 194 197 198 198 198 199 200 202 204 205 207 208 209 210 212 214 216 216 218 219 220 223
292 292 313 332 310 282 311 303 191 185 192 196 186 184 189 194 200 189 172 185 220 261 249 131 94 88 81 91 126 145 163 168 169 172 176 179 182 185 188 191 192 194 195 197 197 198 200 203 204 206 208 208 209 209 210 211 212 214 216 217 219 221 223
291 305 335 337 312 287 1 17 340 206 194 190 186 169 143 203 212 157 128 160 219 255 121 83 69 80 81 67 78 119 155 167 167 167 172 177 181 185 190 192 191 192 195 198 199 201 204 205 206 208 210 210 210 210 211 211 212 213 216 218 220 222 225
287 314 328 317 307 326 37 18 346 311 222 127 112 93 40 14 7 139 158 192 213 203 127 91 68 61 62 48 46 90 131 153 161 165 169 176 181 185 188 189 190 193 196 200 202 204 205 206 208 210 211 211 212 213 214 215 215 215 218 220 222 225 228
289 311 319 312 329 36 81 353 359 353 26 83 88 65 24 16 13 353 256 187 169 159 117 99 89 74 65 58 55 73 106 121 130 143 154 164 172 177 180 185 189 194 197 200 202 204 206 208 210 211 212 213 214 215 216 217 217 218 219 220 223 225 228
285 306 325 330 161 192 252 327 13 6 24 74 77 56 29 14 7 355 354 36 43 82 107 103 102 94 78 65 58 62 82 96 101 106 116 135 150 160 170 180 187 193 196 198 199 201 204 207 209 209 212 215 216 217 218 217 217 218 218 219 222 225 228
281 325 351 244 216 269 337 8 5 4 5 11 39 51 31 8 7 2 357 23 46 82 100 103 104 94 79 66 57 57 68 82 91 93 95 108 122 132 147 164 174 184 191 196 200 203 207 209 211 213 215 217 219 220 221 220 219 219 219 220 222 225 228
332 342 314 267 265 312 358 4 344 346 350 333 350 54 37 8 9 5 359 19 35 36 61 99 101 90 78 65 50 51 62 75 84 88 89 94 101 107 116 126 133 144 158 169 182 195 204 208 212 218 221 223 224 225 225 223 222 222 222 224 226 227 229
349 346 311 323 339 335 349 332 316 310 306 293 282 81 46 9 0 2 7 16 27 27 0 342 89 85 76 60 35 45 59 73 82 86 87 90 95 99 104 110 114 122 132 137 145 159 174 181 189 203 213 219 223 225 225 225 225 225 226 228 230 231 232
310 325 300 315 18 79 332 320 312 314 318 298 244 108 45 2 347 358 10 14 24 40 18 346 36 84 82 79 42 47 59 71 79 85 86 87 91 94 99 105 109 113 120 126 133 144 154 160 166 179 193 203 211 216 221 224 225 227 230 232 233 234 235
283 289 281 305 120 332 322 318 312 314 314 306 163 96 44 339 335 351 10 21 26 38 39 32 44 70 80 90 70 60 68 74 77 82 83 83 86 88 92 98 102 108 119 127 131 136 141 150 161 172 181 189 197 204 212 219 223 227 231 234 237 238 238
279 276 268 293 167 326 324 320 315 313 311 334 82 82 14 314 328 352 15 30 37 41 48 53 52 52 61 72 74 73 77 78 76 80 83 82 82 84 87 91 97 105 115 119 120 121 123 138 164 178 184 188 193 199 206 214 221 227 231 234 237 239 239
283 271 272 287 172 345 333 325 325 331 345 79 59 43 7 335 337 5 22 30 41 47 53 60 60 58 59 62 65 68 72 76 78 81 86 85 83 83 83 86 91 97 104 105 99 93 95 132 188 204 206 205 205 208 213 218 223 229 233 236 238 240 241
313 319 9 31 142 330 337 336 341 2 41 67 25 34 29 4 359 16 26 31 40 48 56 59 59 59 58 56 59 61 64 70 75 79 84 85 84 83 83 83 84 87 94 92 58 28 7 349 277 242 239 232 227 226 227 228 230 232 236 238 240 242 243
6 359 17 46 176 311 352 359 2 18 48 56 45 43 34 11 7 19 28 31 38 46 54 57 55 56 55 52 54 55 56 62 71 77 82 82 82 82 83 85 87 86 83 75 53 28 6 358 346 289 260 246 239 238 237 237 237 238 240 240 240 242 243
341 247 342 3 209 120 41 37 29 25 39 48 45 44 36 13 7 21 27 28 34 41 47 50 48 49 49 47 47 46 45 50 61 72 78 78 79 83 86 89 92 85 74 59 38 22 10 357 347 334 293 254 242 242 243 243 243 243 245 245 243 242 242
297 291 14 8 8 51 58 47 33 30 35 38 37 41 38 19 9 19 24 24 28 35 39 42 41 41 41 43 43 41 39 40 46 55 65 66 67 73 79 81 79 72 59 38 18 6 354 340 326 313 298 276 258 252 250 249 248 247 248 250 248 245 243
321 2 30 13 11 56 62 44 31 29 29 28 25 29 33 24 15 17 19 18 21 26 32 36 36 36 38 39 40 40 38 36 37 42 51 56 56 59 63 63 60 55 42 25 16 7 354 342 323 299 287 282 275 266 259 255 253 251 251 252 251 248 245
316 251 29 3 349 16 71 46 35 26 14 8 8 11 16 19 15 12 13 12 12 16 25 33 33 32 34 35 37 39 38 37 37 38 42 49 56 61 62 58 52 46 34 21 13 5 357 350 339 317 296 284 278 272 267 263 257 252 250 253 253 249 243
299 8 21 2 348 326 332 352 6 9 357 353 356 359 359 1 5 9 10 11 14 17 22 30 31 28 26 27 30 35 40 41 39 35 35 43 54 61 63 57 49 41 30 19 9 360 350 343 339 333 316 298 288 278 271 268 263 254 248 248 253 251 242
305 349 0 352 344 304 303 311 318 329 337 338 342 347 349 349 353 4 10 13 21 25 25 29 32 26 21 20 24 30 37 40 39 35 33 38 47 55 58 54 47 36 22 9 358 349 338 331 332 332 324 317 311 296 275 264 262 257 248 241 238 239 237
289 307 317 317 310 291 289 294 300 309 320 325 326 332 343 347 347 356 7 11 17 21 22 27 32 27 19 17 19 26 32 35 37 37 32 28 36 46 49 45 35 19 1 352 343 333 326 323 324 325 324 323 322 313 284 260 253 249 245 238 227 220 220
286 292 296 297 292 283 280 285 290 295 300 306 313 321 338 351 347 346 349 354 4 8 8 13 22 24 19 14 11 14 19 21 26 30 28 24 31 40 42 35 18 353 340 340 335 327 323 320 318 319 320 321 320 312 287 263 247 234 237 238 229 218 211
293 291 293 291 283 278 280 283 285 285 288 294 299 303 316 333 343 345 341 338 341 347 348 350 2 14 15 7 2 1 3 7 14 19 23 28 32 35 35 24 2 338 328 331 333 331 325 319 317 314 313 317 318 307 276 261 242 224 229 236 233 226 216
Height
1399 1402 1402 1401 1411 1421 1423 1424 1428 1424 1418 1426 1440 1446 1438 1438 1451 1447 1435 1433 1428 1421 1416 1406 1404 1408 1406 1406 1408 1411 1415 1418 1423 1428 1431 1434 1437 1440 1444 1446 1449 1453 1456 1460 1463 1466 1469 1472 1475 1478 1481 1484 1486 1490 1493 1497 1501 1504 1506 1509 1511 1514 1517
1395 1394 1397 1397 1398 1405 1416 1422 1417 1413 1419 1423 1432 1446 1446 1447 1457 1448 1432 1432 1432 1431 1427 1411 1405 1409 1408 1406 1407 1408 1410 1414 1419 1422 1424 1428 1431 1435 1438 1441 1445 1449 1452 1455 1459 1462 1465 1468 1471 1474 1477 1480 1483 1486 1489 1493 1496 1499 1502 1505 1508 1511 1514
1392 1387 1397 1403 1396 1392 1400 1406 1403 1410 1427 1431 1430 1441 1448 1454 1460 1451 1437 1432 1429 1428 1425 1413 1408 1407 1404 1404 1405 1406 1408 1410 1414 1417 1419 1423 1426 1431 1434 1438 1442 1446 1449 1452 1454 1458 1461 1465 1468 1470 1474 1477 1481 1484 1487 1490 1493 1496 1500 1503 1506 1509 1512
1393 1388 1396 1406 1400 1392 1393 1398 1399 1402 1414 1423 1425 1429 1434 1444 1455 1453 1445 1439 1428 1418 1412 1407 1405 1400 1397 1399 1401 1403 1404 1405 1409 1411 1415 1418 1423 1428 1431 1435 1439 1442 1445 1448 1451 1454 1457 1461 1465 1468 1473 1476 1479 1482 1485 1487 1491 1494 1498 1501 1504 1507 1509
1401 1396 1391 1393 1395 1395 1396 1401 1404 1402 1405 1412 1417 1420 1421 1429 1444 1448 1448 1446 1429 1406 1396 1396 1395 1391 1390 1391 1394 1398 1398 1399 1403 1405 1408 1413 1418 1424 1428 1431 1435 1438 1441 1445 1448 1452 1455 1458 1462 1466 1470 1473 1476 1479 1482 1484 1488 1491 1495 1498 1501 1503 1506
1413 1398 1383 1380 1383 1389 1393 1398 1400 1400 1404 1411 1422 1430 1420 1416 1427 1433 1438 1442 1422 1393 1384 1385 1384 1383 1383 1381 1384 1390 1392 1394 1398 1399 1402 1408 1414 1419 1423 1427 1431 1435 1438 1442 1446 1451 1454 1457 1460 1463 1467 1470 1473 1476 1479 1482 1485 1488 1491 1494 1497 1500 1503
1414 1395 1381 1378 1378 1380 1385 1391 1392 1394 1399 1404 1417 1429 1422 1415 1420 1418 1423 1431 1412 1383 1376 1378 1375 1375 1375 1374 1377 1384 1387 1390 1392 1395 1399 1405 1409 1413 1418 1423 1428 1431 1435 1439 1444 1448 1451 1454 1457 1461 1464 1467 1470 1472 1475 1479 1482 1484 1487 1491 1494 1497 1500
1405 1389 1381 1377 1375 1378 1384 1387 1386 1389 1393 1393 1399 1409 1411 1415 1420 1417 1425 1432 1409 1378 1371 1373 1370 1368 1368 1369 1373 1378 1383 1386 1389 1393 1398 1402 1406 1410 1415 1420 1424 1428 1432 1437 1441 1445 1448 1451 1454 1458 1461 1464 1467 1470 1473 1476 1478 1481 1484 1487 1491 1494 1497
1410 1395 1392 1387 1380 1379 1382 1383 1382 1383 1386 1388 1393 1399 1404 1413 1415 1413 1425 1431 1406 1377 1368 1368 1366 1364 1365 1367 1370 1373 1378 1383 1387 1391 1395 1399 1403 1408 1413 1418 1422 1426 1431 1435 1438 1441 1444 1447 1450 1453 1457 1461 1464 1467 1470 1473 1476 1479 1482 1485 1488 1491 1493
1429 1414 1408 1400 1394 1389 1381 1376 1377 1379 1381 1387 1394 1400 1408 1414 1410 1408 1416 1417 1399 1379 1370 1367 1364 1362 1363 1365 1368 1371 1374 1378 1384 1389 1394 1397 1401 1406 1411 1415 1420 1425 1429 1431 1434 1437 1441 1444 1447 1450 1454 1458 1462 1465 1468 1471 1473 1476 1479 1482 1485 1487 1490
1441 1428 1416 1403 1402 1404 1391 1376 1373 1377 1380 1383 1389 1399 1407 1407 1407 1409 1406 1400 1395 1386 1376 1372 1368 1363 1363 1366 1369 1372 1374 1377 1381 1385 1391 1395 1399 1404 1408 1412 1417 1422 1425 1428 1431 1434 1437 1440 1444 1448 1451 1455 1459 1462 1465 1468 1471 1473 1476 1479 1481 1484 1486
1439 1430 1419 1406 1405 1407 1395 1381 1374 1374 1377 1381 1386 1394 1397 1397 1405 1412 1401 1392 1396 1391 1378 1375 1372 1366 1365 1366 1367 1370 1372 1375 1379 1382 1387 1392 1397 1402 1406 1410 1414 1418 1421 1424 1427 1431 1434 1438 1442 1446 1449 1453 1456 1459 1462 1464 1467 1470 1472 1475 1477 1480 1483
1433 1423 1414 1406 1402 1396 1387 1378 1370 1368 1373 1379 1384 1388 1389 1389 1397 1402 1393 1390 1395 1387 1376 1374 1371 1365 1365 1364 1363 1366 1369 1373 1377 1381 1385 1390 1395 1400 1404 1408 1411 1414 1417 1420 1424 1429 1432 1436 1440 1443 1447 1451 1454 1457 1459 1461 1464 1466 1469 1472 1474 1477 1479
1427 1414 1405 1397 1392 1386 1377 1369 1363 1364 1370 1374 1378 1383 1384 1384 1385 1385 1385 1388 1388 1379 1372 1371 1367 1364 1364 1363 1363 1365 1368 1371 1375 1379 1383 1387 1393 1398 1401 1404 1407 1410 1413 1417 1421 1426 1430 1434 1438 1441 1444 1447 1450 1453 1456 1458 1461 1463 1466 1468 1471 1473 1475
1425 1408 1399 1392 1387 1383 1375 1366 1360 1360 1365 1371 1376 1379 1381 1384 1383 1380 1384 1389 1386 1376 1370 1369 1367 1365 1366 1366 1366 1366 1368 1370 1374 1378 1382 1386 1390 1396 1399 1402 1405 1408 1412 1416 1420 1424 1428 1431 1434 1438 1441 1444 1447 1450 1453 1455 1458 1461 1463 1466 1468 1470 1472
1430 1407 1401 1399 1388 1376 1373 1375 1374 1367 1364 1369 1374 1375 1379 1384 1383 1382 1387 1390 1386 1377 1370 1369 1369 1368 1369 1371 1369 1368 1369 1370 1373 1377 1381 1384 1388 1392 1397 1401 1404 1408 1411 1415 1418 1421 1425 1428 1432 1435 1439 1442 1445 1448 1450 1454 1457 1460 1462 1464 1466 1468 1471
1433 1411 1408 1405 1390 1383 1390 1396 1393 1380 1366 1364 1371 1380 1387 1388 1386 1387 1388 1384 1380 1375 1369 1371 1375 1374 1374 1375 1373 1370 1370 1371 1374 1376 1379 1382 1386 1390 1394 1399 1403 1407 1410 1413 1416 1419 1423 1426 1430 1433 1436 1439 1442 1445 1449 1452 1456 1459 1461 1462 1464 1466 1469
1438 1420 1413 1405 1399 1404 1405 1398 1392 1386 1376 1374 1384 1396 1398 1393 1390 1389 1384 1377 1377 1375 1370 1373 1378 1378 1379 1379 1376 1374 1373 1373 1376 1379 1381 1384 1387 1391 1395 1399 1403 1407 1410 1413 1416 1419 1423 1426 1429 1433 1436 1438 1441 1444 1448 1451 1453 1456 1458 1460 1461 1463 1465
1441 1428 1418 1413 1413 1411 1400 1390 1389 1388 1382 1379 1385 1394 1398 1396 1393 1390 1385 1381 1381 1378 1373 1372 1375 1377 1379 1379 1379 1380 1380 1378 1379 1382 1385 1387 1390 1394 1398 1402 1406 1409 1411 1414 1417 1420 1424 1428 1431 1434 1436 1438 1441 1444 1446 1449 1451 1453 1455 1457 1458 1460 1462
1439 1434 1431 1426 1415 1401 1391 1389 1387 1385 1385 1384 1387 1397 1404 1402 1397 1395 1392 1388 1385 1382 1377 1373 1374 1374 1374 1378 1384 1388 1387 1384 1383 1385 1388 1391 1394 1397 1402 1405 1408 1412 1414 1417 1420 1423 1426 1429 1432 1434 1436 1438 1440 1442 1444 1447 1449 1451 1453 1454 1456 1457 1458
1435 1439 1440 1427 1410 1402 1401 1401 1398 1398 1402 1400 1400 1409 1413 1406 1400 1400 1397 1391 1388 1387 1383 1379 1374 1368 1369 1382 1393 1395 1394 1392 1389 1389 1391 1394 1397 1400 1404 1407 1410 1413 1416 1419 1422 1425 1427 1430 1432 1434 1435 1437 1439 1441 1443 1445 1446 1448 1450 1451 1453 1454 1455
1436 1440 1441 1429 1420 1419 1418 1414 1405 1401 1404 1402 1399 1407 1414 1409 1404 1402 1399 1395 1393 1390 1388 1386 1374 1365 1377 1397 1403 1400 1399 1397 1393 1393 1395 1397 1399 1402 1405 1408 1411 1414 1417 1420 1423 1426 1427 1429 1432 1433 1435 1436 1438 1439 1441 1442 1444 1446 1447 1448 1450 1451 1452
1442 1443 1443 1436 1433 1432 1426 1416 1403 1394 1396 1395 1392 1404 1419 1417 1409 1406 1403 1400 1397 1392 1392 1389 1376 1374 1394 1410 1408 1403 1402 1399 1396 1396 1397 1399 1402 1404 1407 1409 1412 1415 1418 1421 1423 1425 1427 1429 1431 1432 1434 1435 1437 1438 1439 1441 1442 1443 1443 1445 1447 1449 1450
1443 1441 1439 1436 1437 1436 1425 1413 1402 1394 1390 1385 1392 1416 1431 1423 1415 1412 1408 1403 1401 1397 1395 1391 1385 1389 1404 1411 1408 1406 1403 1399 1397 1398 1399 1401 1404 1405 1408 1411 1413 1415 1418 1421 1423 1424 1426 1428 1430 1431 1432 1433 1435 1436 1438 1439 1440 1441 1442 1443 1445 1447 1448
1441 1439 1436 1434 1436 1436 1425 1412 1404 1393 1385 1390 1410 1432 1435 1425 1420 1418 1412 1408 1406 1402 1398 1397 1398 1403 1408 1409 1408 1407 1403 1401 1401 1401 1401 1403 1405 1407 1410 1412 1414 1416 1418 1420 1422 1424 1426 1427 1429 1430 1431 1432 1433 1435 1436 1437 1439 1439 1441 1442 1443 1444 1445
1438 1435 1433 1434 1436 1434 1424 1415 1404 1391 1393 1413 1431 1434 1430 1428 1426 1420 1414 1412 1409 1406 1405 1405 1408 1411 1412 1410 1408 1407 1405 1405 1405 1404 1405 1406 1407 1409 1411 1413 1415 1417 1418 1420 1421 1423 1425 1427 1428 1429 1430 1431 1432 1433 1434 1435 1436 1437 1438 1440 1440 1442 1443
1439 1437 1439 1443 1444 1437 1426 1419 1412 1405 1413 1431 1435 1429 1430 1431 1426 1421 1418 1415 1412 1411 1411 1411 1413 1415 1415 1414 1412 1410 1409 1408 1407 1407 1408 1408 1410 1412 1413 1415 1417 1418 1419 1421 1422 1424 1426 1427 1427 1428 1429 1430 1431 1432 1433 1434 1434 1435 1436 1437 1438 1439 1440
1446 1448 1448 1446 1445 1438 1432 1430 1429 1427 1429 1433 1431 1429 1431 1432 1428 1424 1422 1418 1417 1416 1415 1415 1417 1417 1416 1417 1417 1416 1415 1414 1412 1411 1411 1410 1412 1413 1415 1417 1419 1420 1422 1423 1424 1425 1426 1427 1427 1428 1428 1429 1429 1430 1431 1431 1432 1433 1434 1434 1436 1437 1437
1448 1450 1447 1442 1439 1439 1438 1437 1437 1434 1432 1431 1431 1431 1432 1434 1433 1428 1424 1422 1421 1420 1418 1418 1417 1417 1417 1418 1417 1416 1417 1416 1415 1414 1414 1414 1414 1414 1416 1418 1419 1420 1422 1422 1424 1425 1425 1426 1427 1427 1427 1428 1428 1429 1429 1429 1430 1431 1432 1432 1433 1434 1435
1447 1446 1444 1441 1440 1440 1440 1439 1438 1436 1433 1432 1432 1432 1434 1438 1437 1431 1427 1425 1423 1422 1421 1420 1418 1419 1419 1418 1416 1416 1415 1414 1413 1413 1413 1413 1413 1414 1415 1416 1418 1419 1420 1421 1422 1424 1424 1426 1426 1426 1427 1427 1428 1428 1428 1428 1429 1429 1429 1430 1431 1432 1433
1449 1448 1445 1443 1443 1442 1439 1438 1438 1437 1435 1433 1433 1434 1437 1439 1437 1432 1428 1426 1425 1424 1423 1420 1420 1422 1420 1419 1418 1418 1417 1416 1415 1414 1413 1413 1413 1413 1414 1415 1417 1419 1420 1421 1423 1424 1425 1425 1426 1426 1427 1427 1427 1428 1428 1427 1428 1428 1428 1428 1429 1430 1431
1449 1448 1446 1444 1443 1442 1439 1438 1439 1439 1437 1435 1434 1433 1435 1437 1436 1433 1429 1428 1427 1425 1423 1421 1421 1421 1420 1420 1420 1420 1420 1420 1419 1418 1418 1417 1416 1417 1417 1418 1419 1420 1421 1423 1424 1424 1425 1426 1426 1426 1426 1426 1427 1427 1427 1427 1427 1427 1427 1427 1427 1427 1429
1450 1447 1446 1444 1442 1438 1435 1436 1439 1440 1439 1437 1435 1433 1433 1434 1435 1434 1433 1431 1429 1427 1426 1424 1422 1422 1422 1422 1422 1422 1423 1423 1422 1422 1422 1421 1421 1421 1420 1420 1421 1422 1423 1425 1425 1426 1426 1426 1427 1427 1426 1426 1426 1425 1425 1426 1425 1426 1426 1426 1425 1426 1427
1454 1450 1450 1450 1448 1443 1437 1435 1437 1438 1438 1437 1436 1435 1433 1431 1431 1433 1434 1434 1433 1431 1429 1428 1426 1425 1426 1425 1425 1425 1426 1425 1426 1425 1425 1424 1424 1422 1421 1421 1422 1424 1425 1426 1426 1426 1427 1427 1427 1427 1427 1426 1425 1424 1424 1424 1424 1425 1425 1425 1425 1425 1425
1457 1452 1451 1451 1450 1445 1440 1436 1436 1437 1437 1437 1437 1436 1434 1431 1429 1430 1431 1432 1432 1432 1432 1431 1430 1429 1429 1429 1428 1428 1427 1427 1427 1426 1425 1425 1424 1422 1421 1422 1423 1426 1426 1426 1426 1426 1427 1427 1428 1427 1427 1426 1425 1424 1423 1423 1424 1424 1424 1424 1425 1425 1425
1453 1451 1450 1449 1445 1441 1438 1436 1435 1435 1436 1436 1436 1436 1434 1432 1429 1429 1428 1429 1429 1430 1430 1430 1429 1428 1428 1429 1428 1427 1427 1427 1426 1426 1426 1426 1424 1423 1422 1423 1426 1428 1427 1427 1426 1427 1427 1428 1428 1428 1427 1426 1425 1424 1423 1423 1423 1423 1424 1424 1424 1425 1426
1449 1447 1446 1444 1439 1435 1434 1433 1432 1431 1433 1434 1434 1434 1434 1432 1430 1429 1428 1428 1428 1429 1429 1428 1427 1427 1427 1427 1427 1426 1426 1426 1426 1426 1426 1425 1424 1423 1423 1425 1428 1428 1428 1427 1427 1427 1428 1428 1428 1427 1427 1425 1424 1424 1424 1423 1423 1423 1423 1423 1423 1424 1426